Regional Weather Roundup
Issued by NWS

Home | Current Version | Previous Version | Text Only | Print | Product List | Glossary Off
Versions: 1 2 3 4 5 6 7 8 9 10 11 12 13 14 15 16 17 18 19 20 21 22 23 24 25 26 27 28 29 30 31 32 33 34 35 36 37 38 39 40 41 42 43 44 45 46 47 48 49 50

000
ASUS43 KDTX 251410
RWRMI
MICHIGAN HOURLY REGIONAL WEATHER ROUNDUP
NATIONAL WEATHER SERVICE DETROIT/PONTIAC MI
1000 AM EDT SUN JUN 25 2017

NOTE: "FAIR" INDICATES FEW OR NO CLOUDS BELOW 12,000 FEET WITH NO
SIGNIFICANT WEATHER AND/OR OBSTRUCTION TO VISIBILITY.

MIZ047>049-052>055-059>063-066>070-074>076-081>083-251500-
SOUTHEAST LOWER MICHIGAN

CITY           SKY/WX    TMP DP  RH WIND       PRES   REMARKS
ADRIAN         SUNNY     64  47  53 NW15      30.05R
ALMA           SUNNY     62  50  63 W13       30.00R
ANN ARBOR      SUNNY     64  49  57 SW18G25   30.02R
BAD AXE        CLOUDY    60  52  74 W14       29.96R
CARO           PTSUNNY   61  53  75 SW12      29.97R
DETROIT CITY   MOSUNNY   66  50  56 W14G21    29.99F
DETROIT        PTSUNNY   66  52  60 W16G23    30.02S
FLINT          MOSUNNY   62  50  64 W18G25    30.00R
GROSSE ILE     MOSUNNY   65  53  63 W9        30.01R
HILLSDALE      PTSUNNY   61  46  59 W13G20    30.05S
HOWELL         PTSUNNY   61  47  59 W15       30.02R

CITY           SKY/WX    TMP DP  RH WIND       PRES   REMARKS
JACKSON        MOSUNNY   62  48  60 NW13G23   30.04R
LAMBERTVILLE   SUNNY     65  51  60 W15G23    30.03S
LANSING        SUNNY     63  47  55 W16G23    30.02S
LAPEER         FAIR      62  48  59 W16       29.99R
MASON          MOSUNNY   62  50  64 W10       30.03R
MONROE         SUNNY     65  52  62 W14G20    30.02S
MT. CLEMENS    PTSUNNY   67  50  54 W18       29.97S
PONTIAC        MOSUNNY   63  47  55 W18       29.99R
PORT HOPE        N/A     63  52  67 W10G17    29.93R
PORT HURON     PTSUNNY   63  46  55 SW6       29.97F
TRI CITIES     SUNNY     62  52  69 W14       29.98S
MIDLAND        FAIR      62  49  62 W7        29.97S
TROY           SUNNY     66  38  35 W20       30.01S
SAGINAW HB     MOSUNNY   61  46  59 W13       29.98R
$$
MIZ043>046-050>051-056>058-064>065-071>073-077>080-251500-
SOUTHWEST LOWER MICHIGAN

CITY           SKY/WX    TMP DP  RH WIND       PRES   REMARKS
BATTLE CREEK   MOSUNNY   62  51  67 W12       30.07R
BENTON HARBOR  SUNNY     64  50  60 W18       30.08R
BIG RAPIDS     CLOUDY    60  49  67 W16G23    29.98S
COLDWATER      MOSUNNY   63  47  57 W15       30.06S
FREMONT        CLOUDY    59  51  73 W8        30.00R
HOLLAND        MOSUNNY   63  52  67 W18G24    30.05S
GRAND RAPIDS   PTSUNNY   63  51  65 W16       30.02R
IONIA          PTSUNNY   62  47  58 W13G20    30.02R
KALAMAZOO      MOSUNNY   63  48  58 W14       30.07R
LUDINGTON      CLOUDY    56  53  88 W6        29.99R
MARSHALL       PTSUNNY   62  49  63 W15       30.05R
MOUNT PLEASANT SUNNY     62  48  61 W9G16     29.98R
MUSKEGON       PTSUNNY   62  52  69 W15G24    30.03R
SOUTH HAVEN    PTSUNNY   64  53  68 W10G22    30.07R
$$
MIZ016>042-251500-
NORTHERN LOWER MICHIGAN

CITY           SKY/WX    TMP DP  RH WIND       PRES   REMARKS
ALPENA         PTSUNNY   59  56  89 W7        29.93R
BEAVER ISLAND  SUNNY     59  54  82 NW6       29.94R
BELLAIRE       RAIN      56  53  87 SW3       29.94R
CADILLAC       CLOUDY    55  50  83 W9        29.97R
CHARLEVOIX     MOSUNNY   61  55  79 W7        29.96S
FRANKFORT      PTSUNNY   58  51  78 SW9       29.96R
GAYLORD        PTSUNNY   58  49  72 W10       29.94R
GRAYLING       CLOUDY    58  52  81 W7        29.96R
HARBOR SPRINGS MOSUNNY   60  56  85 SW8       29.93R
HOUGHTON LAKE  PTSUNNY   58  50  75 SW10      29.97R
MANISTEE       CLOUDY    56  52  86 W13       29.97S
OSCODA         MOSUNNY   63  53  68 NW10      29.93S
PELLSTON       MOSUNNY   61  51  70 W5        29.93R
ROGERS CITY    CLOUDY    58  54  88 N5        29.93S
TRAVERSE CITY  CLOUDY    59  52  77 W14       29.94R
$$
MIZ007>008-015-251500-
EASTERN UPPER MICHIGAN

CITY           SKY/WX    TMP DP  RH WIND       PRES   REMARKS
KINROSS        CLOUDY    54  51  90 NW7       29.95R
MACKINAC ISLAN MOSUNNY   58  54  86 NE7       29.93R
NEWBERRY       CLOUDY    54  53  97 N6        29.94R
S. S. MARIE    PTSUNNY   58  53  84 NW5       29.93R
MUNISING         N/A     51  51 100 N9        29.96R
$$
MIZ004>006-011>014-085-251500-
CENTRAL UPPER MICHIGAN

CITY           SKY/WX    TMP DP  RH WIND       PRES   REMARKS
MANISTIQUE     CLOUDY    56  53  89 N6        29.94R
ESCANABA       CLOUDY    58  53  84 N5        29.96R
MENOMINEE      PTSUNNY   59  53  80 N7        29.99R
SAWYER-GWINN   PTSUNNY   57  52  82 NW8       29.97R
$$
MIZ001>003-009>011-084-251500-
WESTERN UPPER MICHIGAN

CITY           SKY/WX    TMP DP  RH WIND       PRES   REMARKS
IRON MOUNTAIN  PTSUNNY   57  49  74 NW9       29.98R
HOUGHTON       PTSUNNY   58  52  80 NW9       29.98R
COPPER HARBOR    N/A     52  51  97 N10       29.98R
IRONWOOD       CLOUDY    54  52  94 W8        30.03R
$$

ABBREVIATIONS USED IN REMARKS
   TC - TEMPERATURE IN CELSIUS
  WCI - WIND CHILL INDEX
   HX - HEAT INDEX
  VSB - VISIBILITY





USA.gov is the U.S. government's official web portal to all federal, state and local government web resources and services.